Home > Weather > Rygge > Past weeks

Flag for Norway Past Weather in Rygge, Norway — Yesterday and Last 2 Weeks

Now
56 °F

Scattered clouds.


Feels Like: 56 °F
Forecast: 54 / 69 °F
Wind: 2 mph from Southwest

Location: Rygge

Current Time: Jul 30, 2016 at 7:39:38 AM

Latest Report: Jul 30, 2016 at 6:00 AM


Visibility: 28 mi

Pressure: 29.67 "Hg

Humidity: 95%

Dew Point: 55 °F

Location of RyggeLocation

Past Weather in Rygge — Graph

°F

Rygge Temperature Yesterday

Maximum temperature yesterday: 67 °F (at 1:00 PM)
Minimum temperature yesterday: 58 °F (at 5:00 AM)
Average temperature yesterday: 63 °F

High & Low Weather Summary for the Past Weeks

 TemperatureHumidityPressure
High78 °F (Jul 21, 1:00 PM)98% (Jul 19, 6:00 AM)30.14 "Hg (Jul 19, 6:00 AM)
Low51 °F (Jul 17, 4:00 AM)47% (Jul 16, 9:00 PM)29.67 "Hg (Jul 30, 6:00 AM)
Average65 °F76%29.97 "Hg
* Reported Jul 15 6:00 AM — Jul 30 6:00 AM, Rygge, Weather by CustomWeather, © 2016

Note: Actual official high and low records may vary slightly from our data, if they occured in-between our weather recording intervals... More about our weather records

Advertising

Rygge Weather History for the Previous 24 Hours

Scroll right to see more
 ConditionsComfort  
Time TempWeatherWind HumidityBarometerVisibility
6:00 AM
Sat, Jul 30
56 °FScattered clouds.2 mph95%29.67 "Hg28 mi
5:00 AM57 °FSunny.1 mph96%29.67 "Hg19 mi
4:00 AM58 °FOvercast.2 mph96%29.67 "Hg19 mi
3:00 AM58 °FRain showers. Overcast.2 mph93%29.68 "Hg14 mi
2:00 AM60 °FLight rain. Low clouds.2 mph92%29.69 "Hg9 mi
1:00 AM59 °FOvercast.3 mph92%29.70 "Hg14 mi
12:00 AM60 °FRain showers. Low clouds.5 mph95%29.71 "Hg10 mi
11:00 PM
Fri, Jul 29
59 °FRain. Overcast.5 mph96%29.72 "Hg3 mi
10:00 PM60 °FRain showers. Overcast.5 mph92%29.72 "Hg13 mi
9:00 PM61 °FOvercast.3 mph94%29.73 "Hg19 mi
8:00 PM61 °FRain showers. Partly sunny.5 mph91%29.74 "Hg18 mi
7:00 PM65 °FRain showers. Overcast.3 mph79%29.75 "Hg25 mi
6:00 PM65 °FOvercast.3 mph77%29.76 "Hg28 mi
5:00 PM65 °FOvercast.5 mph71%29.78 "Hg28 mi
4:00 PM65 °FOvercast.5 mph65%29.78 "Hg28 mi
3:00 PM66 °FPartly sunny.6 mph70%29.80 "Hg25 mi
2:00 PM66 °FPassing clouds.6 mph69%29.80 "Hg22 mi
1:00 PM67 °FPassing clouds.7 mph63%29.81 "Hg22 mi
12:00 PM65 °FPassing clouds.6 mph67%29.82 "Hg25 mi
11:00 AM65 °FOvercast.6 mph73%29.82 "Hg25 mi
10:00 AM64 °FOvercast.5 mph77%29.82 "Hg28 mi
9:00 AM62 °FOvercast.3 mph80%29.83 "Hg28 mi
8:00 AM61 °FOvercast.2 mph79%29.82 "Hg28 mi
7:00 AM60 °FOvercast.2 mph86%29.82 "Hg28 mi
Weather by CustomWeather, © 2016

See weather overviewHow to use our weather pages